Total_Precipitation_Accumulation
0.75 0.90 0.92 0.84 0.81 0.85 0.92 0.98 1.05 1.02 1.00 0.93 0.81 0.74 0.73 0.72 0.66 0.56 0.44 0.40 0.38 0.36 0.35 0.34 0.37 0.42 0.47 0.51 0.58 0.67 0.75 0.82 0.94 1.11 1.37 1.65 1.87 2.10
0.93 1.02 1.06 1.05 1.02 0.93 0.97 1.02 1.05 1.10 1.06 0.87 0.81 0.82 0.73 0.57 0.55 0.48 0.42 0.45 0.40 0.36 0.33 0.31 0.31 0.35 0.39 0.41 0.38 0.41 0.46 0.50 0.55 0.61 0.71 0.86 1.04 1.27
1.06 1.18 1.23 1.26 1.24 1.11 1.06 1.03 1.03 1.11 1.04 0.86 0.81 0.83 0.71 0.56 0.49 0.47 0.44 0.43 0.37 0.39 0.35 0.30 0.29 0.30 0.34 0.36 0.35 0.34 0.35 0.36 0.40 0.44 0.48 0.55 0.59 0.67
1.14 1.31 1.39 1.34 1.23 1.14 1.13 1.07 1.05 1.14 1.08 0.98 0.98 0.92 0.83 0.72 0.63 0.56 0.47 0.43 0.42 0.47 0.42 0.34 0.31 0.30 0.29 0.28 0.29 0.29 0.30 0.31 0.32 0.33 0.36 0.39 0.41 0.42
1.17 1.22 1.24 1.30 1.25 1.18 1.12 1.06 1.04 1.14 1.16 1.07 1.13 1.12 1.01 0.87 0.75 0.64 0.56 0.54 0.43 0.42 0.43 0.39 0.36 0.30 0.28 0.27 0.27 0.27 0.26 0.25 0.27 0.29 0.31 0.35 0.35 0.35
1.09 1.14 1.15 1.16 1.21 1.27 1.19 1.14 1.16 1.19 1.21 1.17 1.20 1.33 1.22 1.03 0.88 0.73 0.63 0.59 0.52 0.39 0.40 0.44 0.41 0.35 0.30 0.27 0.26 0.25 0.27 0.25 0.25 0.26 0.26 0.28 0.33 0.38
0.96 0.92 1.00 1.17 1.25 1.28 1.18 1.17 1.24 1.22 1.23 1.28 1.28 1.40 1.41 1.24 0.99 0.77 0.68 0.66 0.61 0.53 0.46 0.39 0.36 0.33 0.31 0.31 0.30 0.28 0.25 0.25 0.24 0.23 0.24 0.27 0.31 0.42
0.90 0.86 0.84 0.92 1.04 1.10 1.08 1.06 1.11 1.17 1.23 1.26 1.31 1.39 1.45 1.36 1.17 0.99 0.84 0.73 0.68 0.66 0.67 0.58 0.46 0.43 0.36 0.31 0.33 0.33 0.31 0.27 0.25 0.23 0.22 0.22 0.25 0.36
0.80 0.77 0.64 0.61 0.78 0.87 0.98 1.00 0.96 0.95 1.01 1.17 1.29 1.33 1.45 1.49 1.40 1.18 1.08 0.96 0.78 0.74 0.78 0.73 0.64 0.54 0.42 0.39 0.44 0.37 0.34 0.32 0.31 0.29 0.25 0.21 0.19 0.23
0.72 0.71 0.71 0.69 0.71 0.79 0.90 0.96 0.96 0.91 0.88 0.93 1.06 1.25 1.41 1.56 1.54 1.41 1.31 1.17 0.96 0.84 0.82 0.78 0.71 0.63 0.51 0.46 0.47 0.42 0.38 0.35 0.34 0.38 0.46 0.46 0.33 0.27
0.85 0.86 0.83 0.77 0.75 0.69 0.74 0.80 0.83 0.89 0.85 0.83 0.90 1.09 1.27 1.41 1.55 1.49 1.37 1.19 0.99 0.85 0.81 0.75 0.68 0.68 0.62 0.53 0.46 0.45 0.39 0.37 0.36 0.39 0.52 0.76 0.83 0.65
1.03 0.98 0.86 0.72 0.64 0.57 0.60 0.67 0.67 0.67 0.77 0.81 0.82 0.91 1.06 1.18 1.33 1.34 1.22 1.17 1.00 0.84 0.72 0.69 0.63 0.66 0.70 0.60 0.52 0.47 0.43 0.41 0.40 0.44 0.60 0.92 1.06 0.93
1.08 1.02 0.95 0.80 0.63 0.56 0.54 0.57 0.58 0.64 0.73 0.79 0.89 1.00 1.15 1.27 1.27 1.24 1.20 1.08 0.98 0.78 0.62 0.67 0.63 0.59 0.59 0.55 0.51 0.49 0.45 0.42 0.41 0.44 0.53 0.78 1.04 1.01
1.22 1.13 1.05 0.88 0.66 0.59 0.51 0.50 0.51 0.52 0.67 0.76 0.82 0.94 1.06 1.20 1.28 1.33 1.32 1.17 0.99 0.86 0.77 0.77 0.70 0.64 0.57 0.50 0.48 0.49 0.52 0.50 0.47 0.46 0.47 0.62 0.75 1.00
1.25 1.29 1.14 0.96 0.78 0.66 0.64 0.61 0.55 0.52 0.64 0.75 0.75 0.78 0.85 0.99 1.26 1.47 1.57 1.50 1.23 0.96 0.85 0.80 0.73 0.71 0.69 0.56 0.46 0.45 0.49 0.53 0.52 0.52 0.52 0.55 0.67 0.86
1.27 1.30 1.17 1.07 0.92 0.78 0.74 0.67 0.58 0.55 0.60 0.68 0.72 0.77 0.87 0.99 1.17 1.36 1.56 1.60 1.44 1.08 0.90 0.84 0.79 0.79 0.74 0.64 0.54 0.45 0.42 0.46 0.50 0.54 0.61 0.64 0.74 0.85
1.31 1.40 1.33 1.23 1.14 1.02 0.93 0.87 0.81 0.74 0.68 0.70 0.82 0.87 0.94 0.97 1.05 1.19 1.40 1.51 1.38 1.05 0.85 0.83 0.88 0.90 0.86 0.82 0.70 0.53 0.47 0.42 0.44 0.54 0.65 0.66 0.71 0.75
1.15 1.31 1.30 1.21 1.16 1.12 1.08 1.02 0.97 0.91 0.86 0.85 0.89 0.95 0.97 1.00 1.06 1.15 1.26 1.35 1.30 1.10 0.91 0.81 0.89 0.97 0.92 0.83 0.69 0.57 0.49 0.46 0.48 0.60 0.67 0.66 0.62 0.66
0.95 1.13 1.12 1.10 1.10 1.13 1.10 1.02 0.95 0.96 0.99 0.96 0.91 0.95 1.00 1.02 1.05 1.13 1.17 1.25 1.28 1.22 1.07 0.94 0.91 0.92 0.82 0.64 0.54 0.54 0.54 0.54 0.60 0.64 0.68 0.66 0.59 0.57
0.81 0.95 1.01 1.03 1.06 1.11 1.10 1.09 1.04 1.05 1.07 1.02 0.99 1.00 1.07 1.10 1.07 1.09 1.15 1.18 1.23 1.26 1.22 1.07 0.93 0.86 0.77 0.66 0.59 0.52 0.49 0.55 0.63 0.64 0.65 0.68 0.64 0.63
0.86 0.92 0.97 0.98 1.02 1.09 1.10 1.10 1.10 1.12 1.11 1.11 1.11 1.11 1.17 1.22 1.13 1.08 1.14 1.20 1.17 1.20 1.16 1.02 0.92 0.96 0.98 0.96 0.76 0.55 0.53 0.52 0.55 0.61 0.67 0.71 0.68 0.68
0.94 0.93 0.99 1.00 1.01 1.02 1.04 1.05 1.07 1.12 1.12 1.13 1.17 1.20 1.20 1.21 1.14 1.11 1.10 1.15 1.11 1.06 1.08 1.12 1.22 1.25 1.14 1.01 0.79 0.65 0.65 0.63 0.62 0.62 0.60 0.61 0.60 0.57
0.95 0.94 0.94 0.92 0.92 0.95 0.98 1.00 1.08 1.12 1.12 1.11 1.16 1.21 1.22 1.19 1.15 1.13 1.12 1.12 1.15 1.17 1.23 1.30 1.38 1.33 1.15 1.03 0.89 0.80 0.78 0.77 0.74 0.69 0.63 0.57 0.49 0.44